Hourly Weather Adelaide

Today, 7 March, Sunday

Time Temperature Precipitation Wind Pressure Humidity
00:00 +17°C° 0 mm 2 mps 696 mmHg 92%
01:00 +17°C° 0 mm 2 mps 696 mmHg 92%
02:00 +16°C° 0 mm 2 mps 696 mmHg 91%
03:00 +15°C° 0 mm 2 mps 696 mmHg 91%
04:00 +15°C° 0 mm 1 mps 696 mmHg 90%
05:00 +14°C° 0 mm 1 mps 695 mmHg 90%
06:00 +15°C° 0 mm 1 mps 696 mmHg 86%
07:00 +16°C° 0 mm 1 mps 696 mmHg 82%
08:00 +18°C° 0 mm 1 mps 697 mmHg 74%
09:00 +20°C° 0 mm 1 mps 697 mmHg 65%
10:00 +21°C° 0 mm 2 mps 697 mmHg 55%
11:00 +25°C° 0 mm 2 mps 698 mmHg 46%
12:00 +26°C° 0 mm 2 mps 697 mmHg 41%
13:00 +27°C° 0 mm 3 mps 696 mmHg 37%
14:00 +29°C° 0 mm 4 mps 696 mmHg 32%
15:00 +29°C° 0 mm 4 mps 696 mmHg 33%
16:00 +28°C° 0 mm 5 mps 696 mmHg 34%
17:00 +28°C° 0 mm 5 mps 695 mmHg 35%
18:00 +25°C° 0 mm 4 mps 695 mmHg 50%
19:00 +20°C° 0 mm 4 mps 695 mmHg 66%
20:00 +17°C° 0 mm 3 mps 695 mmHg 81%
21:00 +17°C° 0 mm 2 mps 695 mmHg 84%
22:00 +16°C° 0 mm 2 mps 695 mmHg 86%
23:00 +16°C° 0 mm 1 mps 696 mmHg 88%

Tomorrow, 8 March, Monday

Time Temperature Precipitation Wind Pressure Humidity
00:00 +15°C° 0 mm 1 mps 695 mmHg 89%
01:00 +15°C° 0 mm 1 mps 694 mmHg 90%
02:00 +15°C° 0 mm 1 mps 694 mmHg 91%
03:00 +15°C° 0 mm 1 mps 693 mmHg 90%
04:00 +15°C° 0 mm 1 mps 693 mmHg 89%
05:00 +14°C° 0 mm 0 mps 693 mmHg 88%
06:00 +16°C° 0 mm 1 mps 693 mmHg 83%
07:00 +18°C° 0 mm 1 mps 693 mmHg 78%
08:00 +19°C° 0 mm 1 mps 693 mmHg 73%
09:00 +20°C° 0 mm 2 mps 693 mmHg 64%
10:00 +22°C° 0 mm 3 mps 694 mmHg 56%
11:00 +25°C° 0 mm 4 mps 694 mmHg 47%
12:00 +25°C° 0 mm 4 mps 694 mmHg 46%
13:00 +26°C° 0 mm 5 mps 693 mmHg 45%
14:00 +26°C° 0 mm 6 mps 693 mmHg 43%
15:00 +25°C° 0 mm 5 mps 693 mmHg 50%
16:00 +22°C° 0 mm 5 mps 692 mmHg 56%
17:00 +21°C° 0 mm 5 mps 692 mmHg 63%
18:00 +19°C° 0 mm 4 mps 692 mmHg 70%
19:00 +17°C° 0 mm 4 mps 693 mmHg 78%
20:00 +15°C° 0 mm 4 mps 693 mmHg 86%
21:00 +16°C° 0 mm 3 mps 693 mmHg 86%
22:00 +14°C° 0 mm 3 mps 694 mmHg 86%
23:00 +15°C° 0 mm 2 mps 694 mmHg 87%

Day after tomorrow, 9 March, Tuesday

Time Temperature Precipitation Wind Pressure Humidity
00:00 +15°C° 0 mm 2 mps 694 mmHg 87%
01:00 +15°C° 0 mm 2 mps 693 mmHg 87%
02:00 +15°C° 0 mm 1 mps 693 mmHg 87%
03:00 +15°C° 0 mm 1 mps 693 mmHg 86%
04:00 +15°C° 0 mm 1 mps 693 mmHg 86%
05:00 +15°C° 0 mm 2 mps 693 mmHg 85%
06:00 +15°C° 0 mm 2 mps 693 mmHg 83%
07:00 +16°C° 0 mm 2 mps 693 mmHg 80%
08:00 +16°C° 0 mm 2 mps 693 mmHg 77%
09:00 +19°C° 0 mm 2 mps 693 mmHg 66%
10:00 +22°C° 0 mm 3 mps 693 mmHg 55%
11:00 +25°C° 0 mm 3 mps 693 mmHg 44%
12:00 +27°C° 0 mm 4 mps 693 mmHg 37%
13:00 +29°C° 0 mm 5 mps 692 mmHg 31%
14:00 +33°C° 0 mm 6 mps 692 mmHg 24%
15:00 +32°C° 0 mm 6 mps 692 mmHg 26%
16:00 +30°C° 0 mm 5 mps 691 mmHg 27%
17:00 +29°C° 0 mm 5 mps 691 mmHg 29%
18:00 +26°C° 0 mm 4 mps 691 mmHg 44%
19:00 +21°C° 0 mm 2 mps 691 mmHg 60%
20:00 +18°C° 0 mm 1 mps 691 mmHg 75%
21:00 +18°C° 0 mm 1 mps 691 mmHg 76%
22:00 +16°C° 0 mm 1 mps 691 mmHg 77%
23:00 +15°C° 0 mm 1 mps 691 mmHg 78%

10 March, Wednesday

Time Temperature Precipitation Wind Pressure Humidity
00:00 +16°C° 0 mm 1 mps 691 mmHg 73%
01:00 +16°C° 0 mm 1 mps 692 mmHg 68%
02:00 +16°C° 0 mm 2 mps 692 mmHg 63%
03:00 +16°C° 0 mm 2 mps 692 mmHg 58%
04:00 +16°C° 0 mm 2 mps 692 mmHg 53%
05:00 +16°C° 0 mm 2 mps 692 mmHg 48%
06:00 +18°C° 0 mm 3 mps 693 mmHg 43%
07:00 +21°C° 0 mm 3 mps 694 mmHg 38%
08:00 +23°C° 0 mm 4 mps 695 mmHg 33%
09:00 +26°C° 0 mm 4 mps 695 mmHg 32%
10:00 +27°C° 0 mm 4 mps 695 mmHg 31%
11:00 +29°C° 0 mm 4 mps 695 mmHg 29%
12:00 +30°C° 0 mm 4 mps 694 mmHg 27%
13:00 +33°C° 0 mm 5 mps 694 mmHg 24%
14:00 +34°C° 0 mm 5 mps 694 mmHg 22%
15:00 +34°C° 0 mm 5 mps 693 mmHg 23%
16:00 +33°C° 0 mm 6 mps 693 mmHg 23%
17:00 +33°C° 0 mm 6 mps 693 mmHg 24%
18:00 +29°C° 0 mm 5 mps 693 mmHg 32%
19:00 +26°C° 0 mm 3 mps 693 mmHg 41%
20:00 +24°C° 0 mm 2 mps 693 mmHg 49%
21:00 +21°C° 0 mm 2 mps 694 mmHg 56%
22:00 +20°C° 0 mm 2 mps 694 mmHg 63%
23:00 +18°C° 0 mm 2 mps 694 mmHg 70%

11 March, Thursday

Time Temperature Precipitation Wind Pressure Humidity
00:00 +18°C° 0 mm 2 mps 694 mmHg 75%
01:00 +18°C° 0 mm 1 mps 694 mmHg 79%
02:00 +16°C° 0 mm 1 mps 694 mmHg 84%
03:00 +16°C° 0 mm 1 mps 694 mmHg 84%
04:00 +16°C° 0 mm 1 mps 694 mmHg 84%
05:00 +16°C° 0 mm 1 mps 695 mmHg 84%
06:00 +18°C° 0 mm 1 mps 695 mmHg 76%
07:00 +19°C° 0 mm 2 mps 696 mmHg 68%
08:00 +21°C° 0 mm 2 mps 697 mmHg 60%
09:00 +24°C° 0 mm 2 mps 697 mmHg 54%
10:00 +26°C° 0 mm 3 mps 697 mmHg 48%
11:00 +27°C° 0 mm 4 mps 698 mmHg 43%
12:00 +27°C° 0 mm 4 mps 697 mmHg 44%
13:00 +27°C° 0 mm 4 mps 697 mmHg 46%
14:00 +27°C° 0 mm 5 mps 697 mmHg 47%
15:00 +26°C° 0 mm 5 mps 697 mmHg 49%
16:00 +26°C° 0 mm 5 mps 697 mmHg 52%
17:00 +26°C° 0 mm 5 mps 697 mmHg 54%
18:00 +22°C° 0 mm 5 mps 697 mmHg 65%
19:00 +20°C° 0 mm 4 mps 697 mmHg 75%
20:00 +18°C° 0 mm 4 mps 698 mmHg 85%
21:00 +17°C° 0 mm 3 mps 698 mmHg 88%
22:00 +17°C° 0 mm 2 mps 698 mmHg 92%
23:00 +16°C° 0 mm 1 mps 698 mmHg 95%

12 March, Friday

Time Temperature Precipitation Wind Pressure Humidity
00:00 +16°C° 0 mm 1 mps 697 mmHg 94%
01:00 +15°C° 0 mm 1 mps 697 mmHg 94%
02:00 +15°C° 0 mm 1 mps 697 mmHg 94%
03:00 +15°C° 0 mm 1 mps 696 mmHg 94%
04:00 +15°C° 0 mm 1 mps 696 mmHg 93%
05:00 +15°C° 0 mm 1 mps 696 mmHg 93%
06:00 +18°C° 0 mm 1 mps 696 mmHg 84%
07:00 +20°C° 0 mm 1 mps 697 mmHg 74%
08:00 +22°C° 0 mm 1 mps 697 mmHg 65%
09:00 +26°C° 0 mm 2 mps 697 mmHg 54%
10:00 +29°C° 0 mm 2 mps 697 mmHg 42%
11:00 +33°C° 0 mm 3 mps 697 mmHg 30%
12:00 +35°C° 0 mm 3 mps 697 mmHg 26%
13:00 +36°C° 0 mm 3 mps 697 mmHg 21%
14:00 +38°C° 0 mm 3 mps 696 mmHg 17%
15:00 +37°C° 0 mm 3 mps 696 mmHg 17%
16:00 +37°C° 0 mm 2 mps 696 mmHg 18%
17:00 +37°C° 0 mm 2 mps 695 mmHg 18%
18:00 +32°C° 0 mm 2 mps 695 mmHg 32%
19:00 +28°C° 0 mm 2 mps 695 mmHg 47%
20:00 +25°C° 0 mm 2 mps 695 mmHg 61%
21:00 +24°C° 0 mm 2 mps 695 mmHg 63%
22:00 +23°C° 0 mm 2 mps 695 mmHg 65%
23:00 +23°C° 0 mm 2 mps 695 mmHg 67%
Show more